DW1824 Weather Reports


time (UTC)temp
F
wind
direction
speed
knots
gust
knots
rain 1hr
in
rain 24hr
in
rain mn
in
humidity
%
barometer
mb
20260831153356 86 353 0.0 0.0 0.00 0.00 0.00 75 1017.2
20260831152339 86 313 0.0 0.0 0.00 0.00 0.00 77 1017.2
20260831151326 85 289 0.0 0.0 0.00 0.00 0.00 79 1017.2
20260831150330 84 308 0.0 0.0 0.00 0.00 0.00 81 1017.0
20260831145341 84 230 0.0 0.0 0.00 0.00 0.00 83 1017.1
20260831144327 83 204 0.0 0.9 0.00 0.00 0.00 84 1017.1
20260831143330 83 166 0.0 0.0 0.00 0.00 0.00 86 1016.9
20260831142336 82 163 0.0 0.0 0.00 0.00 0.00 89 1016.9
20260831141340 80 32 0.0 0.0 0.00 0.00 0.00 91 1016.9
20260831140343 79 32 0.0 0.0 0.00 0.00 0.00 93 1016.9
20260831135328 78 32 0.0 0.0 0.00 0.00 0.00 93 1016.8
20260831134338 78 32 0.0 0.9 0.00 0.00 0.00 94 1016.7
20260831133341 77 32 0.0 0.0 0.00 0.00 0.00 95 1016.8
20260831132347 76 32 0.0 0.9 0.00 0.00 0.00 95 1016.8
20260831131331 75 24 0.0 0.0 0.00 0.00 0.00 94 1016.6
20260831125339 74 29 0.0 0.0 0.00 0.00 0.00 94 1016.4
20260831124345 74 29 0.0 0.0 0.00 0.00 0.00 94 1016.1
20260831123326 74 16 0.0 0.0 0.00 0.00 0.00 94 1015.9
20260831122332 74 16 0.0 0.0 0.00 0.00 0.00 94 1015.8
20260831121341 73 16 0.0 0.0 0.00 0.00 0.00 93 1015.8
20260831120343 74 16 0.0 0.0 0.00 0.00 0.00 92 1015.6
20260831115328 74 16 0.0 0.0 0.00 0.00 0.00 93 1015.5
20260831114334 74 16 0.0 0.0 0.00 0.00 0.00 93 1015.6
20260831113338 74 16 0.0 0.0 0.00 0.00 0.00 93 1015.5
20260831112342 74 14 0.0 0.0 0.00 0.00 0.00 93 1015.6
20260831111331 74 14 0.0 0.0 0.00 0.00 0.00 91 1015.6
20260831110334 74 14 0.0 0.0 0.00 0.00 0.00 92 1015.6
20260831105340 74 14 0.0 0.0 0.00 0.00 0.00 92 1015.5
20260831104345 74 14 0.0 0.0 0.00 0.00 0.00 91 1015.5
20260831103349 74 14 0.0 0.0 0.00 0.00 0.00 91 1015.6
20260831102331 75 14 0.0 0.0 0.00 0.00 0.00 92 1015.5
20260831101337 75 14 0.0 0.0 0.00 0.00 0.00 91 1015.5
20260831100340 75 14 0.0 0.0 0.00 0.00 0.00 91 1015.5
20260831095325 75 14 0.0 0.0 0.00 0.00 0.00 90 1015.6
20260831094336 75 14 0.0 0.9 0.00 0.00 0.00 90 1015.6
20260831093340 76 14 0.9 2.6 0.00 0.00 0.00 90 1015.5
20260831092325 76 226 0.0 0.9 0.00 0.00 0.00 90 1015.3
20260831091352 76 226 0.0 0.9 0.00 0.00 0.00 91 1015.3
20260831090335 76 228 0.0 0.9 0.00 0.00 0.00 91 1015.3
20260831085340 76 196 0.0 0.9 0.00 0.00 0.00 90 1015.4
20260831084327 76 196 0.0 0.0 0.00 0.00 0.00 90 1015.4
20260831083335 76 196 0.0 0.0 0.00 0.00 0.00 90 1015.5
20260831082341 76 196 0.0 0.9 0.00 0.00 0.00 89 1015.5
20260831081327 76 159 0.0 0.9 0.00 0.00 0.00 89 1015.5
20260831080330 76 159 0.0 0.0 0.00 0.00 0.00 89 1015.5
20260831075335 77 159 0.0 0.0 0.00 0.00 0.00 89 1015.5
20260831074341 77 159 0.0 0.0 0.00 0.00 0.00 88 1015.5
20260831073345 77 159 0.0 0.0 0.00 0.00 0.00 88 1015.5
20260831072332 77 159 0.0 0.0 0.00 0.00 0.00 88 1015.7
20260831071336 77 159 0.0 0.0 0.00 0.00 0.00 89 1015.7
20260831070340 76 159 0.0 0.0 0.00 0.00 0.00 88 1015.8
20260831065325 77 159 0.0 0.9 0.00 0.00 0.00 88 1016.0
20260831064349 77 159 0.0 0.9 0.00 0.00 0.00 86 1016.0
20260831063331 78 159 0.0 0.0 0.00 0.00 0.00 86 1016.0
20260831062337 77 160 0.0 0.9 0.00 0.00 0.00 87 1015.9
20260831061324 78 159 0.0 0.9 0.00 0.00 0.00 86 1015.9
20260831060346 78 159 0.0 0.9 0.00 0.00 0.00 85 1016.0
20260831055330 78 160 0.0 0.9 0.00 0.00 0.00 85 1016.0
20260831054335 78 135 0.0 0.9 0.00 0.00 0.00 85 1015.9
20260831053338 79 135 0.9 1.7 0.00 0.00 0.00 84 1015.9
20260831051326 79 158 0.0 0.0 0.00 0.00 0.00 82 1015.8
20260831050329 80 158 0.0 0.0 0.00 0.00 0.00 82 1015.7
20260831045334 80 145 0.0 0.9 0.00 0.00 0.00 82 1015.8
20260831044325 80 145 0.0 1.7 0.00 0.00 0.00 81 1015.7
20260831043328 80 135 1.7 2.6 0.00 0.00 0.00 81 1015.7
20260831042353 81 137 0.9 2.6 0.00 0.00 0.00 80 1015.6
20260831041357 81 116 0.9 1.7 0.00 0.00 0.00 79 1015.5
20260831040340 81 150 0.9 1.7 0.00 0.00 0.00 78 1015.3
20260831035326 81 136 0.9 1.7 0.00 0.00 0.00 78 1015.2
20260831034351 82 148 0.9 3.5 0.00 0.00 0.00 77 1015.2
20260831033333 82 151 0.9 2.6 0.00 0.00 0.00 76 1015.1
20260831032338 82 139 0.9 1.7 0.00 0.00 0.00 76 1015.1
20260831031326 83 145 1.7 2.6 0.00 0.00 0.00 75 1015.0
20260831030330 83 149 0.9 2.6 0.00 0.00 0.00 74 1015.0
20260831025336 83 137 1.7 4.3 0.00 0.00 0.00 73 1014.9
20260831024339 84 153 1.7 2.6 0.00 0.00 0.00 73 1014.7
20260831023325 84 137 1.7 4.3 0.00 0.00 0.00 73 1014.4
20260831022351 84 145 1.7 3.5 0.00 0.00 0.00 72 1014.2
20260831021335 85 134 2.6 3.5 0.00 0.00 0.00 71 1014.1
20260831020329 85 145 1.7 3.5 0.00 0.00 0.00 70 1014.0
20260831015354 86 139 1.7 3.5 0.00 0.00 0.00 70 1014.0
20260831014342 86 141 1.7 2.6 0.00 0.00 0.00 70 1013.8
20260831013327 87 149 1.7 3.5 0.00 0.00 0.00 68 1013.7
20260831012334 87 145 0.9 2.6 0.00 0.00 0.00 68 1013.6
20260831011339 88 140 1.7 2.6 0.00 0.00 0.00 66 1013.7
20260831010343 88 142 1.7 4.3 0.00 0.00 0.00 65 1013.7
20260831005348 88 152 1.7 2.6 0.00 0.00 0.00 65 1013.5
20260831004332 89 143 0.9 2.6 0.00 0.00 0.00 63 1013.4
20260831003335 89 142 0.9 3.5 0.00 0.00 0.00 62 1013.4
20260831002324 90 168 1.7 3.5 0.00 0.00 0.00 61 1013.3
20260831001330 91 141 1.7 4.3 0.00 0.00 0.00 60 1013.4
20260831000335 91 135 3.5 7.0 0.00 0.00 0.00 57 1013.2
20260830235343 92 178 0.9 3.5 0.00 0.00 0.00 55 1013.2
20260830234326 92 150 2.6 6.1 0.00 0.00 0.00 53 1013.2
20260830233328 92 134 1.7 3.5 0.00 0.00 0.00 51 1013.2
20260830232335 93 168 0.9 3.5 0.00 0.00 0.00 50 1013.3
20260830231345 94 135 1.7 3.5 0.00 0.00 0.00 46 1013.2
20260830230328 94 133 1.7 7.0 0.00 0.00 0.00 44 1013.2
20260830225333 95 122 3.5 9.6 0.00 0.00 0.00 42 1013.1
20260830224339 95 131 3.5 7.0 0.00 0.00 0.00 45 1013.1
20260830223400 95 122 2.6 8.7 0.00 0.00 0.00 43 1013.2
20260830222324 96 126 5.2 7.8 0.00 0.00 0.00 45 1013.1
20260830221349 96 108 2.6 7.8 0.00 0.00 0.00 44 1013.2
20260830220329 96 137 3.5 7.0 0.00 0.00 0.00 42 1013.2
20260830215333 96 109 0.9 3.5 0.00 0.00 0.00 45 1013.2
20260830214323 96 102 3.5 7.0 0.00 0.00 0.00 45 1013.3
20260830213327 94 126 0.0 1.7 0.00 0.00 0.00 48 1013.4
20260830212333 94 136 0.9 3.5 0.00 0.00 0.00 48 1013.7
20260830211338 95 30 0.9 3.5 0.00 0.00 0.00 46 1013.7
20260830210342 95 124 0.9 3.5 0.00 0.00 0.00 50 1013.9
20260830205328 96 103 1.7 7.0 0.00 0.00 0.00 49 1014.0
20260830204337 95 61 0.9 2.6 0.00 0.00 0.00 49 1014.0
20260830203341 94 112 2.6 5.2 0.00 0.00 0.00 52 1014.3
20260830202327 94 114 0.9 4.3 0.00 0.00 0.00 52 1014.4
20260830201332 94 97 0.0 4.3 0.00 0.00 0.00 51 1014.6
20260830200334 93 124 0.0 2.6 0.00 0.00 0.00 54 1014.8
20260830195339 94 143 0.9 3.5 0.00 0.00 0.00 52 1014.9
20260830194324 95 116 1.7 5.2 0.00 0.00 0.00 51 1015.1
20260830193332 94 29 1.7 5.2 0.00 0.00 0.00 54 1015.3
20260830192338 94 54 0.0 2.6 0.00 0.00 0.00 54 1015.5
20260830191342 95 91 0.9 4.3 0.00 0.00 0.00 53 1015.7
20260830190327 95 244 0.0 5.2 0.00 0.00 0.00 52 1015.8
20260830185351 95 133 1.7 4.3 0.00 0.00 0.00 51 1015.9
20260830184335 94 14 0.9 3.5 0.00 0.00 0.00 53 1015.9
20260830183358 94 145 2.6 6.1 0.00 0.00 0.00 53 1016.2
20260830182343 93 79 0.0 2.6 0.00 0.00 0.00 55 1016.4
20260830181332 93 302 1.7 3.5 0.00 0.00 0.00 55 1016.6
20260830180337 92 213 0.9 2.6 0.00 0.00 0.00 56 1016.7
20260830175342 91 209 0.0 2.6 0.00 0.00 0.00 58 1016.8
20260830174329 92 153 0.0 3.5 0.00 0.00 0.00 59 1017.0
20260830173333 91 220 0.9 4.3 0.00 0.00 0.00 59 1017.1
20260830172340 91 172 0.9 2.6 0.00 0.00 0.00 61 1017.2
20260830171330 91 266 1.7 3.5 0.00 0.00 0.00 60 1017.2
20260830170335 92 189 0.9 1.7 0.00 0.00 0.00 60 1017.3
20260830165339 91 244 0.9 4.3 0.00 0.00 0.00 61 1017.5
20260830164327 91 172 0.9 3.5 0.00 0.00 0.00 59 1017.6
20260830163332 90 131 0.9 3.5 0.00 0.00 0.00 64 1017.6
20260830162337 89 189 0.9 4.3 0.00 0.00 0.00 66 1017.6
20260830161341 88 193 0.0 0.0 0.00 0.00 0.00 68 1017.7
20260830160404 87 263 0.0 0.0 0.00 0.00 0.00 70 1017.7
20260830155333 87 175 0.0 0.0 0.00 0.00 0.00 76 1017.8
20260830154339 86 148 0.0 0.0 0.00 0.00 0.00 74 1017.8